Location: Sungai Bunut
(2.6333°N, 113.7333°E)
Time: 16:16:36
(UTC+00:00)

Cosmos 1697 Rocket - Pass Details

Date: 23 May 2022
Orbit: 833 x 843 km, 71.0° (Epoch: 03 July)

Event Time Altitude Azimuth Distance (km) Brightness Sun altitude
Rises 12:46:33 0° 213° (SSW) 3,388 5.9 -32.4°
Reaches altitude 10° 12:49:12 10° 222° (SW) 2,453 5.2 -33.0°
Maximum altitude 12:54:14 34° 286° (WNW) 1,364 4.2 -34.1°
Drops below altitude 10° 12:59:15 10° 349° (N) 2,450 5.5 -35.2°
Sets 13:01:55 0° 359° (N) 3,383 6.2 -35.8°
